Location: Dötzum
(52.0808°N, 9.8063°E)
Time: 04:07:18
(UTC+00:00)

Cosmos 292 Rocket - Pass Details

Date: 27 May 2022
Orbit: 674 x 692 km, 74.0° (Epoch: 24 June)

Event Time Altitude Azimuth Distance (km) Brightness Sun altitude
Exits shadow 02:25:29 - 219° (SW) 2,351 5.8 -6.0°
Reaches altitude 10° 02:26:03 10° 220° (SW) 2,129 5.6 -6.0°
Maximum altitude 02:30:47 57° 299° (WNW) 803 4.1 -5.5°
Drops below altitude 10° 02:35:31 10° 19° (NNE) 2,131 7.5 -5.0°
Sets 02:37:52 0° 24° (NNE) 3,048 8.6 -4.7°
